ORBVIEW 2 (SEASTAR)

Last updated on Sun Jun 21 2026 00:02:15 GMT+0000 (Coordinated Universal Time)

1 24883U 97037A 26171.43523532 .00000161 00000+0 72046-4 0 9995 2 24883 98.8691 338.5442 0003256 109.5614 250.5923 14.35554590523219
UTC large
Height (km)
Speed (km/s)
/
Latitude / Longitude
Inclination (degrees)
Orbital Period (minutes)
Azimuth
Elevation
Range (km)
Doppler Factor

Next 0 passes for location: London (51.5072 / 0.1276)

No passes found over London.
ORBVIEW 2 (SEASTAR)